When you browse on this site, cookies collect data to enhance your experience and personalize the content and advertising you see.
Visit our Privacy Policy to learn more. By continuing to use the site, you agree to this use of cookies and data.
  • Em Portugal
  • Lista de países
  • Para 7 dias
  • Temperatura da água
  • Mapas de satélite
  • Mapa do tempo
  • Widgets de tempo
  • user-avatar
    Iniciar Sessão

    Previsão horária em Demidova

    Hoje, 26 Abril, Sexta-feira

    Tempo Temperatura Precipitação Vento Pressão Humidade
    00:00 +3°C° 0 mm 2 m/s 755 mmHg 74%
    01:00 +3°C° 0 mm 2 m/s 755 mmHg 77%
    02:00 +3°C° 0 mm 1 m/s 755 mmHg 78%
    03:00 +3°C° 0 mm 1 m/s 755 mmHg 80%
    04:00 +2°C° 0 mm 1 m/s 755 mmHg 82%
    05:00 +3°C° 0 mm 1 m/s 755 mmHg 77%
    06:00 +3°C° 0 mm 0 m/s 755 mmHg 73%
    07:00 +4°C° 0 mm 0 m/s 755 mmHg 68%
    08:00 +6°C° 0 mm 1 m/s 755 mmHg 62%
    09:00 +8°C° 0 mm 1 m/s 755 mmHg 56%
    10:00 +8°C° 0 mm 2 m/s 754 mmHg 49%
    11:00 +9°C° 0 mm 2 m/s 754 mmHg 46%
    12:00 +9°C° 0 mm 3 m/s 754 mmHg 43%
    13:00 +10°C° 0 mm 4 m/s 754 mmHg 40%
    14:00 +10°C° 0 mm 4 m/s 754 mmHg 42%
    15:00 +10°C° 0 mm 4 m/s 754 mmHg 43%
    16:00 +9°C° 0 mm 5 m/s 753 mmHg 44%
    17:00 +10°C° 0 mm 4 m/s 753 mmHg 46%
    18:00 +9°C° 0 mm 3 m/s 753 mmHg 48%
    19:00 +9°C° 0 mm 3 m/s 753 mmHg 50%
    20:00 +7°C° 0 mm 2 m/s 753 mmHg 54%
    21:00 +6°C° 0 mm 2 m/s 754 mmHg 59%
    22:00 +4°C° 0 mm 2 m/s 754 mmHg 64%
    23:00 +5°C° 0 mm 1 m/s 754 mmHg 66%

    Amanhã, 27 Abril, Sábado

    Tempo Temperatura Precipitação Vento Pressão Humidade
    00:00 +4°C° 0 mm 1 m/s 754 mmHg 69%
    01:00 +4°C° 0 mm 1 m/s 754 mmHg 71%
    02:00 +3°C° 0 mm 1 m/s 754 mmHg 72%
    03:00 +3°C° 0 mm 1 m/s 754 mmHg 73%
    04:00 +3°C° 0 mm 1 m/s 754 mmHg 75%
    05:00 +3°C° 0 mm 1 m/s 753 mmHg 72%
    06:00 +3°C° 0 mm 2 m/s 753 mmHg 68%
    07:00 +3°C° 0 mm 3 m/s 753 mmHg 65%
    08:00 +5°C° 0 mm 4 m/s 752 mmHg 59%
    09:00 +7°C° 0 mm 4 m/s 752 mmHg 53%
    10:00 +9°C° 0 mm 5 m/s 751 mmHg 46%
    11:00 +10°C° 0 mm 6 m/s 751 mmHg 43%
    12:00 +13°C° 0 mm 6 m/s 750 mmHg 39%
    13:00 +14°C° 0 mm 7 m/s 749 mmHg 35%
    14:00 +14°C° 0 mm 6 m/s 749 mmHg 36%
    15:00 +15°C° 0 mm 6 m/s 748 mmHg 36%
    16:00 +15°C° 0 mm 6 m/s 748 mmHg 36%
    17:00 +14°C° 0 mm 5 m/s 747 mmHg 40%
    18:00 +13°C° 0 mm 5 m/s 747 mmHg 44%
    19:00 +13°C° 0 mm 4 m/s 746 mmHg 49%
    20:00 +12°C° 0 mm 4 m/s 746 mmHg 51%
    21:00 +11°C° 0 mm 4 m/s 745 mmHg 54%
    22:00 +10°C° 0 mm 4 m/s 745 mmHg 57%
    23:00 +10°C° 0 mm 4 m/s 744 mmHg 58%

    Depois de amanhã, 28 Abril, Domingo

    Tempo Temperatura Precipitação Vento Pressão Humidade
    00:00 +9°C° 0 mm 5 m/s 744 mmHg 59%
    01:00 +9°C° 0 mm 5 m/s 743 mmHg 60%
    02:00 +9°C° 0.2 mm 5 m/s 743 mmHg 64%
    03:00 +8°C° 0.2 mm 5 m/s 742 mmHg 67%
    04:00 +8°C° 0.2 mm 4 m/s 742 mmHg 71%
    05:00 +7°C° 0.3 mm 4 m/s 742 mmHg 75%
    06:00 +6°C° 0.3 mm 4 m/s 741 mmHg 78%
    07:00 +7°C° 0.3 mm 3 m/s 741 mmHg 82%
    08:00 +4°C° 1.7 mm 4 m/s 742 mmHg 83%
    09:00 +2°C° 1.7 mm 5 m/s 742 mmHg 84%
    10:00 +1°C° 1.7 mm 5 m/s 742 mmHg 85%
    11:00 +1°C° 0.4 mm 5 m/s 743 mmHg 84%
    12:00 +1°C° 0.4 mm 5 m/s 744 mmHg 82%
    13:00 +2°C° 0.4 mm 5 m/s 745 mmHg 81%
    14:00 +2°C° 0.1 mm 5 m/s 745 mmHg 78%
    15:00 +2°C° 0.1 mm 6 m/s 746 mmHg 76%
    16:00 +3°C° 0.1 mm 6 m/s 746 mmHg 74%
    17:00 +2°C° 0.1 mm 5 m/s 747 mmHg 73%
    18:00 +2°C° 0.1 mm 5 m/s 747 mmHg 73%
    19:00 +3°C° 0.1 mm 4 m/s 748 mmHg 72%
    20:00 +1°C° 0 mm 4 m/s 748 mmHg 75%
    21:00 0°C° 0 mm 4 m/s 749 mmHg 77%
    22:00 -1°C° 0 mm 4 m/s 749 mmHg 80%
    23:00 -2°C° 0 mm 4 m/s 750 mmHg 83%

    29 Abril, Segunda-feira

    Tempo Temperatura Precipitação Vento Pressão Humidade
    00:00 -2°C° 0 mm 3 m/s 750 mmHg 85%
    01:00 -2°C° 0 mm 3 m/s 750 mmHg 88%
    02:00 -4°C° 0 mm 3 m/s 750 mmHg 89%
    03:00 -4°C° 0 mm 3 m/s 751 mmHg 90%
    04:00 -4°C° 0 mm 3 m/s 751 mmHg 92%
    05:00 -4°C° 0 mm 3 m/s 751 mmHg 88%
    06:00 -2°C° 0 mm 3 m/s 752 mmHg 84%
    07:00 -1°C° 0 mm 3 m/s 752 mmHg 80%
    08:00 0°C° 0 mm 3 m/s 752 mmHg 73%
    09:00 0°C° 0 mm 4 m/s 753 mmHg 66%
    10:00 +1°C° 0 mm 4 m/s 753 mmHg 59%
    11:00 +3°C° 0.2 mm 4 m/s 753 mmHg 55%
    12:00 +3°C° 0.2 mm 4 m/s 753 mmHg 51%
    13:00 +4°C° 0.2 mm 4 m/s 753 mmHg 48%
    14:00 +4°C° 0.1 mm 4 m/s 753 mmHg 47%
    15:00 +4°C° 0.1 mm 4 m/s 753 mmHg 46%
    16:00 +3°C° 0.1 mm 5 m/s 753 mmHg 45%
    17:00 +3°C° 0 mm 4 m/s 753 mmHg 50%
    18:00 +1°C° 0 mm 4 m/s 753 mmHg 54%
    19:00 +1°C° 0 mm 3 m/s 753 mmHg 59%
    20:00 0°C° 0 mm 3 m/s 754 mmHg 64%
    21:00 -1°C° 0 mm 3 m/s 754 mmHg 69%
    22:00 -2°C° 0 mm 2 m/s 754 mmHg 74%
    23:00 -3°C° 0 mm 2 m/s 754 mmHg 75%

    30 Abril, Terça-feira

    Tempo Temperatura Precipitação Vento Pressão Humidade
    00:00 -3°C° 0 mm 2 m/s 754 mmHg 76%
    01:00 -3°C° 0 mm 2 m/s 754 mmHg 76%
    02:00 -4°C° 0 mm 2 m/s 754 mmHg 77%
    03:00 -4°C° 0 mm 2 m/s 754 mmHg 77%
    04:00 -4°C° 0 mm 2 m/s 755 mmHg 78%
    05:00 -3°C° 0 mm 2 m/s 755 mmHg 73%
    06:00 -2°C° 0 mm 2 m/s 755 mmHg 67%
    07:00 -1°C° 0 mm 2 m/s 755 mmHg 62%
    08:00 0°C° 0 mm 3 m/s 755 mmHg 56%
    09:00 +1°C° 0 mm 3 m/s 755 mmHg 49%
    10:00 +2°C° 0 mm 3 m/s 754 mmHg 43%
    11:00 +3°C° 0 mm 4 m/s 754 mmHg 43%
    12:00 +3°C° 0 mm 4 m/s 754 mmHg 42%
    13:00 +4°C° 0 mm 4 m/s 754 mmHg 42%
    14:00 +4°C° 0 mm 4 m/s 754 mmHg 42%
    15:00 +4°C° 0 mm 4 m/s 754 mmHg 42%
    16:00 +4°C° 0 mm 4 m/s 753 mmHg 42%
    17:00 +4°C° 0 mm 3 m/s 753 mmHg 45%
    18:00 +4°C° 0 mm 2 m/s 753 mmHg 49%
    19:00 +4°C° 0 mm 2 m/s 753 mmHg 52%
    20:00 +3°C° 0 mm 2 m/s 753 mmHg 56%
    21:00 +2°C° 0 mm 2 m/s 753 mmHg 59%
    22:00 +1°C° 0 mm 2 m/s 753 mmHg 63%
    23:00 -1°C° 0 mm 2 m/s 753 mmHg 64%

    1 Maio, Quarta-feira

    Tempo Temperatura Precipitação Vento Pressão Humidade
    00:00 -1°C° 0 mm 2 m/s 753 mmHg 66%
    01:00 -1°C° 0 mm 3 m/s 753 mmHg 67%
    02:00 -1°C° 0 mm 3 m/s 753 mmHg 65%
    03:00 0°C° 0 mm 3 m/s 753 mmHg 63%
    04:00 -1°C° 0 mm 4 m/s 753 mmHg 62%
    05:00 0°C° 0 mm 4 m/s 752 mmHg 61%
    06:00 0°C° 0 mm 4 m/s 752 mmHg 60%
    07:00 +1°C° 0 mm 5 m/s 752 mmHg 59%
    08:00 +2°C° 0 mm 5 m/s 752 mmHg 55%
    09:00 +5°C° 0 mm 5 m/s 752 mmHg 52%
    10:00 +6°C° 0 mm 5 m/s 752 mmHg 49%
    11:00 +7°C° 0 mm 5 m/s 752 mmHg 47%
    12:00 +8°C° 0 mm 6 m/s 752 mmHg 45%
    13:00 +8°C° 0 mm 6 m/s 752 mmHg 42%
    14:00 +9°C° 0 mm 6 m/s 752 mmHg 42%
    15:00 +9°C° 0 mm 6 m/s 752 mmHg 41%
    16:00 +9°C° 0 mm 5 m/s 752 mmHg 41%
    17:00 +8°C° 0 mm 5 m/s 752 mmHg 44%
    18:00 +8°C° 0 mm 4 m/s 752 mmHg 48%
    19:00 +8°C° 0 mm 3 m/s 752 mmHg 52%
    20:00 +7°C° 0 mm 3 m/s 752 mmHg 54%
    21:00 +5°C° 0 mm 3 m/s 752 mmHg 57%
    22:00 +3°C° 0 mm 3 m/s 753 mmHg 60%
    23:00 +3°C° 0 mm 3 m/s 753 mmHg 62%
    Mostrar mais